Regional Weather Roundup
Issued by NWS

Home | Current Version | Previous Version | Graphics & Text | Print | Product List | Glossary On
Versions: 1 2 3 4 5 6 7 8 9 10 11 12 13 14 15 16 17 18 19 20 21 22 23 24 25 26 27
000
ASUS45 KBOU 290807
RWRCO

WEATHER ROUNDUP FOR COLORADO
NATIONAL WEATHER SERVICE DENVER/BOULDER CO
200 AM MDT SUN MAY 29 2016

NOTE: "FAIR" INDICATES FEW OR NO CLOUDS BELOW 12000 FEET WITH NO
SIGNIFICANT WEATHER AND/OR OBSTRUCTIONS TO VISIBILITY.

COZ001>005-013-030-031-290900-
...NORTHWEST COLORADO...

CITY           SKY/WX    TMP DP  RH WIND       PRES   REMARKS
CRAIG          FAIR      40  34  79 CALM      30.20S
HAYDEN         FAIR      43  34  70 E9        30.21S
MEEKER         FAIR      40  34  79 NE6       30.21S
MOUNT WERNER   NOT AVBL
STEAMBOAT SPGS FAIR      40  35  82 CALM      30.23S
WALDEN         NOT AVBL
$$

COZ006>008-011-290900-
...WEST CENTRAL VALLEYS...

CITY           SKY/WX    TMP DP  RH WIND       PRES   REMARKS
GRAND JUNCTION FAIR      58  35  42 SE9       30.10R
MONTROSE       FAIR      52  33  48 SE12      30.18R
EAGLE          FAIR      41  36  81 SE5       30.27S
RIFLE          FAIR      44  34  67 E6        30.17S
DELTA          FAIR      58  34  40 NE9       30.14R
NUCLA          FAIR      52  32  46 E10       30.19S
$$

COZ017>023-064>068-290900-
...SOUTHWEST COLORADO...

CITY           SKY/WX    TMP DP  RH WIND       PRES   REMARKS
DURANGO        FAIR      46  31  55 N3        30.18S
CORTEZ         FAIR      43  31  62 N3        30.14S
PAGOSA SPRINGS MOCLDY    43  32  65 CALM      30.26S
TELLURIDE      FAIR      42  29  61 SE6       30.33S
WOLF CREEK PAS MOCLDY    36  19  51 SW6       30.49F
$$

COZ009-010-012-014-032>034-037-058>063-290900-
...CENTRAL COLORADO...

CITY           SKY/WX    TMP DP  RH WIND       PRES   REMARKS
ASPEN          FAIR      39  31  72 S6        30.27F
BUENA VISTA    FAIR      42  28  58 NW9       30.31R
COPPER MTN     NOT AVBL
BERTHOUD PASS  FAIR      30  19  64 W8        30.47S WCI  23
COTTONWOOD PAS FAIR      45  27  49 CALM      30.38S
GUNNISON       FAIR      41  28  60 N7        30.31S
KREMMLING      FAIR      34  32  93 CALM      30.30S
LEADVILLE      FAIR      28  23  81 NE5       30.37S WCI  23
MONARCH PASS   FAIR      36  23  60 MISG      30.57S
SALIDA         FAIR      46  32  58 W5        30.37R
SUNLIGHT       FAIR      39  30  70 CALM      30.43S
WILKERSON PASS FAIR      36  25  64 S5        30.47S
$$

COZ069>075-290900-
...SAN LUIS VALLEY/SANGRE DE CRISTO MOUNTAINS...

CITY           SKY/WX    TMP DP  RH WIND       PRES   REMARKS
ALAMOSA        MOCLDY    43  39  86 S8        30.27R
LA VETA PASS   CLOUDY    45  27  49 NE5       30.40S
SAGUACHE       MOCLDY    45  32  61 NW12      30.29S
$$

COZ035-036-038>040-290900-
...NORTHERN COLORADO FRONT RANGE...

CITY           SKY/WX    TMP DP  RH WIND       PRES   REMARKS
DENVER INTL AP FAIR      50  43  77 SW9       30.15S
DMNS CITY PARK   N/A     52  41  67 SE6       30.15S
AURORA         PTCLDY    50  42  74 S7        30.17S
FRONT RANGE AP NOT AVBL
ERIE MUNI ARPT FAIR      44  40  85 CALM      30.14S
BOULDER MUN AP FAIR      54  36  50 NE3       30.14S
CENTENNIAL     FAIR      47  39  74 CALM      30.17S
BROOMFIELD     FAIR      52  34  50 W9        30.16S
FORT COLLINS   FAIR      46  39  76 CALM      30.15R
LONGMONT       FAIR      50  40  67 W3        30.15F
$$

COZ041-046-047-076>085-087-088-290900-
...PIKES PEAK/PALMER DIVIDE AND SOUTHERN FOOTHILLS...

CITY           SKY/WX    TMP DP  RH WIND       PRES   REMARKS
COLO. SPRINGS  MOCLDY    52  40  63 N3        30.22S
A. F. ACADEMY  CLOUDY    43  37  81 N7        30.22S
SCHRIEVER AFB  NOT AVBL
ELLICOTT       FAIR     N/A N/A N/A E10       30.20S
FALCON         FAIR      46  37  72 CALM      30.25R
FORT CARSON    FAIR      49  39  69 NW6       30.19S
LIMON          FAIR      43  42  97 CALM      30.18R
MONUMENT HILL  FAIR      41  36  81 SW7       30.25S
TRINIDAD       FAIR      48  37  65 W10       30.17S
$$

COZ042>045-048>051-090-091-290900-
...NORTHEAST COLORADO...

CITY           SKY/WX    TMP DP  RH WIND       PRES   REMARKS
GREELEY ARPT   FAIR      46  43  87 MISG      30.13S
AKRON          FAIR      56  41  57 S12       30.12R
BURLINGTON     FAIR      57  45  64 S10       30.11R
WRAY           FAIR      55  48  76 MISG      30.10F
STERLING       FAIR      46  45  93 N5        30.08S
HOLYOKE        NOT AVBL
FORT MORGAN    FAIR      49  43  82 W8        30.13R
$$

COZ086-089-092>099-290900-
...SOUTHEAST COLORADO...

CITY           SKY/WX    TMP DP  RH WIND       PRES   REMARKS
PUEBLO         FAIR      53  47  79 SW5       30.15R
LA JUNTA       FAIR      58  51  78 N6        30.10S
LAMAR          FAIR      53  48  83 CALM      30.07S
SPRINGFIELD      N/A     59  45  59 S10       30.13S
$$




USA.gov is the U.S. government's official web portal to all federal, state and local government web resources and services.